timestamp,surface_pressure_avg,surface_temp_avg,battery_voltage,lat,long
2020-03-09 00:09:01+00:00,359.4446,0.14,12.89,47.84626,-54.09684
2020-03-09 00:19:01+00:00,345.728,0.1,12.65,47.84626,-54.09684
2020-03-09 00:29:01+00:00,339.3697,0.14,12.65,47.84626,-54.09684
2020-03-09 00:39:01+00:00,339.6997,0.24,12.65,47.84626,-54.09684
2020-03-09 00:49:01+00:00,333.01800000000014,0.2,12.65,47.84626,-54.09684
2020-03-09 00:59:01+00:00,320.7563,0.12,12.65,47.84626,-54.09684
2020-03-09 01:09:01+00:00,318.5096,0.21,12.65,47.84626,-54.09684
2020-03-09 01:19:01+00:00,310.1364,0.21,12.65,47.84626,-54.09684
2020-03-09 01:29:01+00:00,299.463,0.2,12.65,47.84626,-54.09684
2020-03-09 01:39:01+00:00,292.678,0.2,12.65,47.84626,-54.09684
2020-03-09 01:49:01+00:00,286.9547,0.2,12.65,47.84626,-54.09684
2020-03-09 01:59:01+00:00,276.6831,0.2,12.65,47.84626,-54.09684
2020-03-09 02:09:01+00:00,268.2614,0.2,12.65,47.84626,-54.09684
2020-03-09 02:19:01+00:00,262.2581,0.2,12.57,47.84626,-54.09684
2020-03-09 02:29:01+00:00,253.4581,0.2,12.57,47.84626,-54.09684
2020-03-09 02:39:01+00:00,243.7681,0.2,12.57,47.84626,-54.09684
2020-03-09 02:49:01+00:00,238.2547,0.2,12.57,47.84626,-54.09684
2020-03-09 02:59:01+00:00,234.5964,0.2,12.57,47.84626,-54.09684
2020-03-09 03:09:01+00:00,223.5265,0.25,12.57,47.84626,-54.09684
2020-03-09 03:19:01+00:00,213.0248,0.26,12.57,47.84626,-54.09684
2020-03-09 03:29:01+00:00,207.8381,0.25,12.57,47.84626,-54.09684
2020-03-09 03:39:01+00:00,203.2714,0.28,12.57,47.84626,-54.09684
2020-03-09 03:49:01+00:00,200.0665,0.29,12.57,47.84626,-54.09684
2020-03-09 03:59:01+00:00,195.8965,0.29,12.57,47.84626,-54.09684
2020-03-09 04:09:01+00:00,190.4981,0.3,12.57,47.84626,-54.09684
2020-03-09 04:19:01+00:00,188.3348,0.3,12.57,47.84626,-54.09684
2020-03-09 04:29:01+00:00,185.9764,0.3,12.57,47.84626,-54.09684
2020-03-09 04:39:01+00:00,185.1081,0.3,12.57,47.84626,-54.09684
2020-03-09 04:49:01+00:00,184.3715,0.3,12.57,47.84626,-54.09684
2020-03-09 04:59:01+00:00,181.2264,0.3,12.57,47.84626,-54.09684
2020-03-09 05:09:01+00:00,180.9398,0.28,12.57,47.84626,-54.09684
2020-03-09 05:19:01+00:00,182.2815,0.26,12.57,47.84626,-54.09684
2020-03-09 05:29:01+00:00,181.6398,0.28,12.57,47.84626,-54.09684
2020-03-09 05:39:01+00:00,183.3964,0.29,12.57,47.84626,-54.09684
2020-03-09 05:49:01+00:00,189.7281,0.3,12.57,47.84626,-54.09684
2020-03-09 05:59:01+00:00,192.1397,0.3,12.57,47.84626,-54.09684
2020-03-09 06:09:01+00:00,190.7548,0.3,12.57,47.84626,-54.09684
2020-03-09 06:19:01+00:00,194.0665,0.3,12.57,47.84626,-54.09684
2020-03-09 06:29:01+00:00,197.4014,0.3,12.57,47.84626,-54.09684
2020-03-09 06:39:01+00:00,199.3231,0.3,12.57,47.84626,-54.09684
2020-03-09 06:49:01+00:00,204.8681,0.3,12.57,47.84626,-54.09684
2020-03-09 06:59:01+00:00,212.2764,0.3,12.57,47.84626,-54.09684
2020-03-09 07:09:01+00:00,214.4181,0.3,12.57,47.84626,-54.09684
2020-03-09 07:19:01+00:00,216.5865,0.3,12.49,47.84626,-54.09684
2020-03-09 07:29:01+00:00,222.4297,0.3,12.49,47.84626,-54.09684
2020-03-09 07:39:01+00:00,228.4131,0.3,12.49,47.84626,-54.09684
2020-03-09 07:49:01+00:00,234.8164,0.3,12.49,47.84626,-54.09684
2020-03-09 07:59:01+00:00,246.7697,0.3,12.49,47.84626,-54.09684
2020-03-09 08:09:01+00:00,254.9764,0.3,12.49,47.84626,-54.09684
2020-03-09 08:19:01+00:00,257.8582,0.3,12.49,47.84626,-54.09684
2020-03-09 08:29:01+00:00,264.3714,0.3,12.49,47.84626,-54.09684
2020-03-09 08:39:01+00:00,279.7747,0.3,12.49,47.84626,-54.09684
2020-03-09 08:49:01+00:00,287.9397,0.3,12.49,47.84626,-54.09684
2020-03-09 08:59:01+00:00,290.3564,0.22,12.49,47.84626,-54.09684
2020-03-09 09:09:01+00:00,298.4281,0.2,12.49,47.84626,-54.09684
2020-03-09 09:19:01+00:00,312.5714,0.1,12.49,47.84626,-54.09684
2020-03-09 09:29:01+00:00,321.8196,0.0,12.49,47.84626,-54.09684
2020-03-09 09:39:01+00:00,329.1146,-0.0,12.49,47.84626,-54.09684
2020-03-09 09:49:01+00:00,336.913,-0.0,12.49,47.84626,-54.09684
2020-03-09 09:59:01+00:00,342.4713,0.0,12.49,47.84626,-54.09684
2020-03-09 10:09:01+00:00,344.473,0.08,12.49,47.84626,-54.09684
2020-03-09 10:19:01+00:00,350.8296,0.17,12.49,47.84626,-54.09684
2020-03-09 10:29:01+00:00,356.1279,0.2,12.49,47.84626,-54.09684
2020-03-09 10:39:01+00:00,358.1796,0.2,12.49,47.84626,-54.09684
2020-03-09 10:49:01+00:00,358.6346,0.2,12.49,47.84626,-54.09684
2020-03-09 10:59:01+00:00,363.8463,0.21,12.49,47.84626,-54.09684
2020-03-09 11:09:01+00:00,370.8762,0.22,12.49,47.84626,-54.09684
2020-03-09 11:19:01+00:00,366.6013,0.2,14.08,47.84626,-54.09684
2020-03-09 11:29:01+00:00,362.9196,0.18,14.08,47.84626,-54.09684
2020-03-09 11:39:01+00:00,368.6697,0.15,14.08,47.84626,-54.09684
2020-03-09 11:49:01+00:00,370.8663,0.18,14.08,47.84626,-54.09684
2020-03-09 11:59:01+00:00,368.1663,0.19,14.08,47.84626,-54.09684
2020-03-09 12:09:01+00:00,368.6763,0.16,14.08,47.84626,-54.09684
2020-03-09 12:19:01+00:00,371.1896,0.1,14.88,47.84626,-54.09684
2020-03-09 12:29:01+00:00,366.8929,0.1,14.88,47.84626,-54.09684
2020-03-09 12:39:01+00:00,361.1562,0.0,14.88,47.84626,-54.09684
2020-03-09 12:49:01+00:00,363.2246,0.0,14.88,47.84626,-54.09684
2020-03-09 12:59:01+00:00,363.6262,0.0,14.88,47.84626,-54.09684
2020-03-09 13:09:01+00:00,352.1229,-0.02,14.88,47.84626,-54.09684
2020-03-09 13:19:01+00:00,340.4463,0.0,14.96,47.84626,-54.09684
2020-03-09 13:29:01+00:00,336.5913,0.01,14.96,47.84626,-54.09684
2020-03-09 13:39:01+00:00,332.1880000000001,0.05,14.96,47.84626,-54.09684
2020-03-09 13:49:01+00:00,319.8163,0.05,14.96,47.84626,-54.09684
2020-03-09 13:59:01+00:00,309.108,0.08,14.96,47.84626,-54.09684
2020-03-09 14:09:01+00:00,302.5613,0.08,14.96,47.84626,-54.09684
2020-03-09 14:19:01+00:00,293.7314,0.03,14.88,47.84626,-54.09684
2020-03-09 14:29:01+00:00,282.9514,0.03,14.88,47.84626,-54.09684
2020-03-09 14:39:01+00:00,270.5198,0.08,14.88,47.84626,-54.09684
2020-03-09 14:49:01+00:00,259.0731,0.08,14.88,47.84626,-54.09684
2020-03-09 14:59:01+00:00,247.8381,0.1,14.88,47.84626,-54.09684
2020-03-09 15:09:01+00:00,237.7581,0.01,14.88,47.84626,-54.09684
2020-03-09 15:19:01+00:00,228.6348,0.05,14.8,47.84626,-54.09684
2020-03-09 15:29:01+00:00,219.4548,0.1,14.8,47.84626,-54.09684
2020-03-09 15:39:01+00:00,211.2331,0.1,14.8,47.84626,-54.09684
2020-03-09 15:49:01+00:00,205.1131,0.1,14.8,47.84626,-54.09684
2020-03-09 15:59:01+00:00,198.0782,0.1,14.8,47.84626,-54.09684
2020-03-09 16:09:01+00:00,191.4231,0.04,14.8,47.84626,-54.09684
2020-03-09 16:19:01+00:00,185.7431,0.1,14.72,47.84626,-54.09684
2020-03-09 16:29:01+00:00,179.7581,0.11,14.72,47.84626,-54.09684
2020-03-09 16:39:01+00:00,174.0448,0.2,14.72,47.84626,-54.09684
2020-03-09 16:49:01+00:00,170.9515,0.24,14.72,47.84626,-54.09684
2020-03-09 16:59:01+00:00,171.5381,0.22,14.72,47.84626,-54.09684
2020-03-09 17:09:01+00:00,168.3881,0.25,14.72,47.84626,-54.09684
2020-03-09 17:19:01+00:00,164.4715,0.26,14.64,47.84626,-54.09684
2020-03-09 17:29:01+00:00,167.2481,0.29,14.64,47.84626,-54.09684
2020-03-09 17:39:01+00:00,166.4798,0.3,14.64,47.84626,-54.09684
2020-03-09 17:49:01+00:00,160.6982,0.3,14.64,47.84626,-54.09684
2020-03-09 17:59:01+00:00,162.4682,0.3,14.64,47.84626,-54.09684
2020-03-09 18:09:01+00:00,165.7782,0.34,14.64,47.84626,-54.09684
2020-03-09 18:19:01+00:00,162.9749,0.35,14.48,47.84626,-54.09684
2020-03-09 18:29:01+00:00,166.1581,0.33,14.48,47.84626,-54.09684
2020-03-09 18:39:01+00:00,174.7931,0.35,14.48,47.84626,-54.09684
2020-03-09 18:49:01+00:00,176.3631,0.38,14.48,47.84626,-54.09684
2020-03-09 18:59:01+00:00,174.8098,0.4,14.48,47.84626,-54.09684
2020-03-09 19:09:01+00:00,180.7681,0.4,14.48,47.84626,-54.09684
2020-03-09 19:19:01+00:00,190.8698,0.4,14.32,47.84626,-54.09684
2020-03-09 19:29:01+00:00,192.8131,0.4,14.32,47.84626,-54.09684
2020-03-09 19:39:01+00:00,194.5581,0.4,14.32,47.84626,-54.09684
2020-03-09 19:49:01+00:00,203.5498,0.39,14.32,47.84626,-54.09684
2020-03-09 19:59:01+00:00,212.2798,0.39,14.32,47.84626,-54.09684
2020-03-09 20:09:01+00:00,216.5698,0.34,14.32,47.84626,-54.09684
2020-03-09 20:19:01+00:00,225.7448,0.3,14.08,47.84626,-54.09684
2020-03-09 20:29:01+00:00,235.6398,0.3,14.08,47.84626,-54.09684
2020-03-09 20:39:01+00:00,242.5348,0.3,14.08,47.84626,-54.09684
2020-03-09 20:49:01+00:00,250.9914,0.3,14.08,47.84626,-54.09684
2020-03-09 20:59:01+00:00,263.808,0.3,14.08,47.84626,-54.09684
2020-03-09 21:09:01+00:00,274.5497,0.3,14.08,47.84626,-54.09684
2020-03-09 21:19:01+00:00,279.4414,0.09,13.76,47.84626,-54.09684
2020-03-09 21:29:01+00:00,289.738,0.05,13.76,47.84626,-54.09684
2020-03-09 21:39:01+00:00,304.368,0.0,13.76,47.84626,-54.09684
2020-03-09 21:49:01+00:00,313.6364,0.0,13.76,47.84626,-54.09684
2020-03-09 21:59:01+00:00,318.5264,-0.04,13.76,47.84626,-54.09684
2020-03-09 22:09:01+00:00,329.5447,-0.08,13.76,47.84626,-54.09684
2020-03-09 22:19:01+00:00,341.7679,-0.02,13.29,47.84626,-54.09684
2020-03-09 22:29:01+00:00,345.1312,-0.07,13.29,47.84626,-54.09684
2020-03-09 22:39:01+00:00,349.7596,-0.03,13.29,47.84626,-54.09684
2020-03-09 22:49:01+00:00,362.6945,-0.05,13.29,47.84626,-54.09684
2020-03-09 22:59:01+00:00,365.7963,-0.1,13.29,47.84626,-54.09684
2020-03-09 23:09:01+00:00,363.3496,-0.11,13.29,47.84626,-54.09684
2020-03-09 23:19:01+00:00,368.4313,-0.1,12.97,47.84626,-54.09684
2020-03-09 23:29:01+00:00,375.7195,-0.01,12.97,47.84626,-54.09684
2020-03-09 23:39:01+00:00,372.5428,0.0,12.97,47.84626,-54.09684
2020-03-09 23:49:01+00:00,370.2413,0.08,12.97,47.84626,-54.09684
2020-03-09 23:59:01+00:00,374.8879,0.2,12.97,47.84626,-54.09684
